CW5494 Weather Reports


Display with metric or nautical units.
time (UTC)temp
F
wind
direction
speed
MPH
gust
MPH
rain 1hr
in
rain 24hr
in
rain mn
in
humidity
%
barometer
mb
20180622232444 74 90 0.0 3.0 0.00 0.00 0.00 67 1012.0
20180622231841 74 65 0.0 4.0 0.00 0.00 0.00 66 1012.2
20180622231340 74 236 0.0 2.0 0.00 0.00 0.00 66 1012.1
20180622230839 74 238 0.0 2.0 0.00 0.00 0.00 66 1012.0
20180622230240 75 247 1.0 4.0 0.00 0.00 0.00 65 1012.0
20180622225739 75 244 1.0 4.0 0.00 0.00 0.00 65 1012.1
20180622225215 75 249 0.0 5.0 0.00 0.00 0.00 66 1012.2
20180622224624 75 80 1.0 5.0 0.00 0.00 0.00 66 1012.2
20180622224015 75 253 1.0 4.0 0.00 0.00 0.00 65 1012.1
20180622223514 75 23 1.0 5.0 0.00 0.00 0.00 65 1012.2
20180622222915 75 259 1.0 5.0 0.00 0.00 0.00 64 1012.2
20180622222315 75 64 0.0 5.0 0.00 0.00 0.00 65 1012.2
20180622221809 75 356 1.0 4.0 0.00 0.00 0.00 64 1012.4
20180622221211 75 306 1.0 4.0 0.00 0.00 0.00 63 1012.4
20180622220709 75 49 1.0 5.0 0.00 0.00 0.00 63 1012.3
20180622220208 75 75 1.0 4.0 0.00 0.00 0.00 62 1012.4
20180622215609 75 259 1.0 4.0 0.00 0.00 0.00 62 1012.4
20180622215109 75 249 1.0 5.0 0.00 0.00 0.00 62 1012.4
20180622214608 76 245 1.0 4.0 0.00 0.00 0.00 61 1012.4
20180622214107 76 49 1.0 5.0 0.00 0.00 0.00 60 1012.4
20180622213506 76 46 0.0 2.0 0.00 0.00 0.00 61 1012.4
20180622213006 76 47 1.0 4.0 0.00 0.00 0.00 61 1012.4
20180622212455 76 251 1.0 6.0 0.00 0.00 0.00 60 1012.4
20180622211853 76 21 1.0 4.0 0.00 0.00 0.00 60 1012.4
20180622211254 76 307 0.0 4.0 0.00 0.00 0.00 61 1012.6
20180622210656 76 259 1.0 5.0 0.00 0.00 0.00 59 1012.7
20180622210154 76 85 0.0 5.0 0.00 0.00 0.00 58 1012.8
20180622205554 76 268 1.0 4.0 0.00 0.00 0.00 59 1012.8
20180622205008 76 264 1.0 4.0 0.00 0.00 0.00 58 1012.9
20180622204444 76 238 1.0 5.0 0.00 0.00 0.00 57 1012.9
20180622203844 76 256 1.0 5.0 0.00 0.00 0.00 58 1012.9
20180622203245 76 252 1.0 4.0 0.00 0.00 0.00 56 1012.9
20180622202651 76 312 1.0 4.0 0.00 0.00 0.00 58 1012.9
20180622202044 75 48 1.0 4.0 0.00 0.00 0.00 57 1012.9
20180622201543 75 243 1.0 5.0 0.00 0.00 0.00 57 1012.9
20180622201038 76 278 2.0 8.0 0.00 0.00 0.00 56 1012.9
20180622200443 76 270 1.0 4.0 0.00 0.00 0.00 55 1012.9
20180622195935 76 225 1.0 6.0 0.00 0.00 0.00 56 1012.9
20180622195425 75 248 1.0 4.0 0.00 0.00 0.00 56 1013.1
20180622194925 75 271 1.0 4.0 0.00 0.00 0.00 56 1013.1
20180622194418 74 242 1.0 6.0 0.00 0.00 0.00 57 1013.1
20180622193909 74 257 2.0 6.0 0.00 0.00 0.00 56 1013.1
20180622193408 73 250 1.0 6.0 0.00 0.00 0.00 58 1013.1
20180622192808 73 254 2.0 6.0 0.00 0.00 0.00 58 1013.1
20180622192306 73 71 1.0 5.0 0.00 0.00 0.00 59 1013.1
20180622191711 73 70 2.0 6.0 0.00 0.00 0.00 58 1013.1
20180622191210 73 275 1.0 5.0 0.00 0.00 0.00 58 1013.1
20180622190705 73 259 2.0 5.0 0.00 0.00 0.00 57 1013.4
20180622190106 73 253 1.0 5.0 0.00 0.00 0.00 57 1013.4
20180622185505 73 261 1.0 5.0 0.00 0.00 0.00 57 1013.5
20180622184905 73 244 1.0 4.0 0.00 0.00 0.00 57 1013.6
20180622184405 74 11 0.0 3.0 0.00 0.00 0.00 57 1013.6
20180622183812 74 60 1.0 5.0 0.00 0.00 0.00 56 1013.7
20180622183300 74 256 2.0 3.0 0.00 0.00 0.00 55 1013.7
20180622182657 74 49 1.0 5.0 0.00 0.00 0.00 54 1013.8
20180622182156 75 282 1.0 5.0 0.00 0.00 0.00 54 1013.8
20180622181656 75 241 1.0 4.0 0.00 0.00 0.00 54 1013.6
20180622181155 75 308 2.0 5.0 0.00 0.00 0.00 53 1013.6
20180622180556 74 261 2.0 5.0 0.00 0.00 0.00 53 1013.7
20180622180055 74 256 1.0 6.0 0.00 0.00 0.00 54 1013.6
20180622175456 73 255 1.0 5.0 0.00 0.00 0.00 55 1013.8
20180622174956 73 257 1.0 4.0 0.00 0.00 0.00 56 1013.8
20180622174357 72 238 1.0 4.0 0.00 0.00 0.00 55 1013.8
20180622173841 72 246 1.0 5.0 0.00 0.00 0.00 56 1013.9
20180622173341 72 246 1.0 4.0 0.00 0.00 0.00 55 1013.9
20180622172746 72 232 1.0 2.0 0.00 0.00 0.00 55 1013.9
20180622172241 72 236 0.0 2.0 0.00 0.00 0.00 56 1014.0
20180622171741 72 108 0.0 4.0 0.00 0.00 0.00 56 1014.0
20180622171141 72 236 1.0 4.0 0.00 0.00 0.00 54 1014.0
20180622170641 72 260 0.0 4.0 0.00 0.00 0.00 54 1014.0
20180622170041 72 244 0.0 4.0 0.00 0.00 0.00 54 1014.0
20180622165441 73 77 1.0 4.0 0.00 0.00 0.00 54 1014.2
20180622164841 73 93 0.0 4.0 0.00 0.00 0.00 55 1014.0
20180622164341 74 116 0.0 2.0 0.00 0.00 0.00 52 1014.0
20180622163742 74 95 0.0 4.0 0.00 0.00 0.00 52 1014.3
20180622163146 74 244 1.0 4.0 0.00 0.00 0.00 51 1014.3
20180622162641 74 257 1.0 6.0 0.00 0.00 0.00 51 1014.3
20180622162047 74 253 1.0 5.0 0.00 0.00 0.00 53 1014.3
20180622161528 74 280 1.0 4.0 0.00 0.00 0.00 53 1014.4
20180622161026 73 249 1.0 4.0 0.00 0.00 0.00 51 1014.4
20180622160523 73 336 0.0 2.0 0.00 0.00 0.00 52 1014.3
20180622160022 73 238 1.0 4.0 0.00 0.00 0.00 51 1014.3
20180622155522 74 216 1.0 5.0 0.00 0.00 0.00 50 1014.3
20180622155018 74 37 1.0 5.0 0.00 0.00 0.00 51 1014.3
20180622154425 74 27 1.0 6.0 0.00 0.00 0.00 51 1014.3
20180622153918 72 263 1.0 6.0 0.00 0.00 0.00 52 1014.3
20180622153319 72 254 1.0 4.0 0.00 0.00 0.00 52 1014.4
20180622152816 71 263 1.0 4.0 0.00 0.00 0.00 52 1014.5
20180622152236 71 255 1.0 5.0 0.00 0.00 0.00 52 1014.5
20180622151736 71 86 1.0 5.0 0.00 0.00 0.00 51 1014.4
20180622151136 71 250 1.0 5.0 0.00 0.00 0.00 54 1014.5
20180622150636 71 77 1.0 4.0 0.00 0.00 0.00 53 1014.6
20180622150135 71 106 0.0 4.0 0.00 0.00 0.00 53 1014.7
20180622145634 70 256 1.0 5.0 0.00 0.00 0.00 54 1014.7
20180622145132 70 247 1.0 5.0 0.00 0.00 0.00 54 1014.7
20180622144532 70 80 1.0 4.0 0.00 0.00 0.00 55 1014.7
20180622144031 69 88 1.0 4.0 0.00 0.00 0.00 54 1014.7
20180622143531 69 252 1.0 5.0 0.00 0.00 0.00 54 1014.7
20180622143030 69 257 1.0 4.0 0.00 0.00 0.00 56 1014.7
20180622142530 68 261 1.0 4.0 0.00 0.00 0.00 59 1014.7
20180622141929 67 132 0.0 2.0 0.00 0.00 0.00 58 1014.7
20180622141429 67 120 0.0 4.0 0.00 0.00 0.00 61 1014.7
20180622140928 67 240 1.0 4.0 0.00 0.00 0.00 61 1014.8
20180622140419 66 253 0.0 4.0 0.00 0.00 0.00 63 1015.0
20180622135919 66 81 1.0 4.0 0.00 0.00 0.00 61 1015.0
20180622135320 66 251 2.0 4.0 0.00 0.00 0.00 61 1015.1